User: anonymous   Login
Location: Salamanca
(40.9670°N, 5.6500°W)
Time: 13:10:17
(UTC+02:00)
Language:

Cosmos 1633 Rocket - Orbit

View from above orbital plane
View from above orbital plane
View from above satellite
View from above satellite

Ground track
Ground track

The orbit data is extracted from the following two-line orbital elements,

1 15593U 85020B   16205.12699566  .00000093  00000-0  82048-5 0  9995
2 15593  82.5361 210.5647 0012898  51.8691  12.8736 14.84219327695562
Epoch (UTC): 23 July 2016 03:02:52
Eccentricity: 0.0012898
inclination: 82.5361°
perigee height: 607 km
apogee height: 625 km
right ascension of ascending node: 210.5647°
argument of perigee: 51.8691°
revolutions per day: 14.84219327
mean anomaly at epoch: 12.8736°
orbit number at epoch: 69556

The dashed part of the orbit path shows where the satellite is in the earth's shadow,  

DLR